Regional Weather Roundup
Issued by NWS

Home | Current Version | Previous Version | Graphics & Text | Print | Product List | Glossary Off
Versions: 1 2 3 4 5 6 7 8 9 10 11 12 13 14 15 16 17 18 19 20 21 22 23 24 25 26 27 28 29 30 31 32 33 34 35 36 37 38 39 40 41 42 43 44 45 46 47 48 49 50

198
ASUS43 KMPX 290710
RWRMN
WEATHER ROUNDUP FOR MINNESOTA
NATIONAL WEATHER SERVICE TWIN CITIES/CHANHASSEN MN
200 AM CDT THU SEP 29 2016


NOTE: "FAIR" INDICATES FEW OR NO CLOUDS BELOW 12,000 FEET WITH NO
SIGNIFICANT WEATHER AND/OR OBSTRUCTIONS TO VISIBILITY. N/A MEANS
CURRENT SKY AND/OR WEATHER CONDITIONS ARE NOT AVAILABLE.

MNZ060>063-068>070-290800-
   Twin Cities Metro

CITY           SKY/WX    TMP DP  RH WIND       PRES   REMARKS
TWIN CITIES    CLEAR     49  47  93 NW5       30.39R
ST PAUL        CLEAR     48  47  96 NW8       30.39R
CRYSTAL        CLEAR     48  45  89 N3        30.38R
BLAINE         CLEAR     48  48 100 CALM      30.39R
LAKEVILLE      CLEAR     46  46 100 CALM      30.38R
EDEN PRAIRIE   CLEAR     51  47  86 N6        30.37S
LAKEVILLE      CLEAR     46  46 100 CALM      30.38R
SOUTH ST PAUL  CLEAR     53  47  82 N3        30.38R
LAKE ELMO      FAIR      45  45 100 CALM      30.39R
$$
MNZ001>005-007-008-013>017-022>024-027-028-290800-
   Northwest Minnesota

CITY           SKY/WX    TMP DP  RH WIND       PRES   REMARKS
BEMIDJI        CLOUDY    50  47  90 CALM      30.44R
HALLOCK        CLEAR     45  43  93 SE6       30.44R
ROSEAU         CLOUDY    46  43  87 CALM      30.45R
WARROAD        CLOUDY    50  46  87 CALM      30.46R
THIEF RVR FALL CLEAR     46  43  89 CALM      30.45R
CROOKSTON      FAIR      48  45  87 SE3       30.44R
FOSSTON        FAIR      43  39  87 CALM      30.45R
DETROIT LAKES  CLEAR     46  45  93 CALM      30.44R
MOORHEAD       CLEAR     45  43  93 E5        30.44R
PARK RAPIDS    CLOUDY    54  42  64 CALM      30.43R
MAHNOMEN       FAIR      46  45  95 SE5       30.43S
$$
MNZ006-009>011-018-025>026-290800-
   North Central Minnesota

CITY           SKY/WX    TMP DP  RH WIND       PRES   REMARKS
BAUDETTE       CLOUDY    47  46  97 CALM      30.45R
FLAG ISLAND    CLOUDY    57  48  72 S6        30.44R
INTL FALLS     CLOUDY    52  49  89 CALM      30.45R
WASKISH        CLOUDY    48  46  93 CALM      30.45R
BIG FORK       CLOUDY    52  50  93 CALM      30.44S
GRAND RAPIDS   CLOUDY    52  50  93 CALM      30.45R
ORR            CLOUDY    52  48  87 CALM      30.42R
COOK           CLOUDY    52  50  93 CALM      30.44R
WALKER         CLOUDY    50  47  92 CALM      30.43R
$$
MNZ012-019>021-037-290800-
   Northeast Minnesota

CITY           SKY/WX    TMP DP  RH WIND       PRES   REMARKS
DULUTH         CLOUDY    52  50  93 N3        30.42R
ELY            CLOUDY    52  52 100 CALM      30.43R
HIBBING        CLOUDY    51  50  96 CALM      30.43R
EVELETH        CLOUDY    53  49  87 CALM      30.44R
DULUTH HARBOR  CLOUDY    55  54  94 CALM      30.43R
TWO HARBORS    CLOUDY    54  48  82 N3        30.41R
SILVER BAY     CLOUDY    52  48  87 CALM      30.41R
GRAND MARAIS     N/A     56  48  74 VRB3      30.42R
G MARAIS ARPRT CLOUDY    48  43  81 N6        30.44R
$$
MNZ029>031-032-039>041-046>048-054>057-064-290800-
   West Central Minnesota

CITY           SKY/WX    TMP DP  RH WIND       PRES   REMARKS
FERGUS FALLS   CLEAR     46  45  93 E5        30.45R
MORRIS         CLEAR     46  45  93 E3        30.41S
ALEXANDRIA     CLOUDY    48  45  89 NE3       30.43S
ELBOW LAKE     CLOUDY    50  46  87 CALM      30.43S
WADENA         CLOUDY    52  46  82 CALM      30.43R
GLENWOOD       CLOUDY    48  45  87 CALM      30.43R
BENSON         CLEAR     45  43  93 NE3       30.42S
ORTONVILLE     CLEAR     46  43  87 CALM      30.41S
MADISON        CLEAR     46  45  93 CALM      30.41S
WILLMAR        FAIR      48  46  93 NE3       30.42S
$$
MNZ033>034-036-042>043-049>051-058-059-290800-
   Central Minnesota

CITY           SKY/WX    TMP DP  RH WIND       PRES   REMARKS
ST CLOUD       CLEAR     49  48  97 NE3       30.41R
SAUK CENTRE    CLOUDY    53  47  80 CALM      30.42S
PAYNESVILLE    CLEAR     48  48 100 CALM      30.42R
AITKIN         CLOUDY    54  48  82 CALM      30.42R
PINE RIVER     CLOUDY    52  48  87 CALM      30.45R
BRAINERD       CLOUDY    53  50  89 NE3       30.43R
STAPLES        CLOUDY    52  46  82 CALM      30.43R
LONG PRAIRIE   CLOUDY    52  46  82 CALM      30.43R
LITTLE FALLS   CLOUDY    52  46  82 CALM      30.43R
LITCHFIELD     CLEAR     50  48  93 CALM      30.41S
BUFFALO        CLEAR     49  46  90 N3        30.41R
MAPLE LAKE     CLEAR     49  48  95 N3        30.42R
HUTCHINSON     CLEAR     48  47  97 CALM      30.41R
$$
MNZ037-044-045-052-053-290800-
   East Central Minnesota

CITY           SKY/WX    TMP DP  RH WIND       PRES   REMARKS
PRINCETON      CLEAR     45  43  93 CALM      30.41R FOG
MORA           CLEAR     46  45  93 CALM      30.43R
CAMBRIDGE      CLEAR     46  43  87 CALM      30.39R
MOOSE LAKE     CLOUDY    50  48  93 CALM      30.40S
HINCKLEY       FAIR      45  45 100 N3        30.42R
CLOQUET        CLOUDY    52  48  87 NW3       30.42R
MCGREGOR       CLOUDY    52  50  93 CALM      30.43R
$$
MNZ071>073-080-081-089-090-097-098-290800-
   Southwest Minnesota

CITY           SKY/WX    TMP DP  RH WIND       PRES   REMARKS
MONTEVIDEO     CLEAR     45  43  93 CALM      30.43R
GRANITE FALLS  CLEAR     47  45  90 N3        30.42S
CANBY          CLOUDY    41  40  96 SW3       30.43R
MARSHALL       CLOUDY    42  40  92 CALM      30.41R
REDWOOD FALLS  CLEAR     51  45  79 N6        30.40R
OLIVIA         CLEAR     50  46  87 NE3       30.40R
PIPESTONE      CLOUDY    46  43  87 CALM      30.40R
WINDOM         CLEAR     45  43  93 N3        30.40R
WORTHINGTON    CLEAR     46  44  93 N6        30.40R
JACKSON        CLEAR     45  43  93 VRB5      30.39S
TRACY          CLEAR     45  44  96 CALM      30.41R
SLAYTON        CLOUDY    41  39  93 NW3       30.42R
$$
MNZ065>067-074>077-082>085-091>093-290800-
   South Central Minnesota

CITY           SKY/WX    TMP DP  RH WIND       PRES   REMARKS
MANKATO        CLEAR     48  47  96 N6        30.38R
NEW ULM        CLEAR     50  48  93 N5        30.39R
ST JAMES       CLEAR     46  46 100 CALM      30.40R
FAIRMONT       CLEAR     46  45  96 N7        30.38R
GLENCOE        CLEAR     48  48 100 NW5       30.39R
FARIBAULT      CLEAR     48  48 100 CALM      30.38R
OWATONNA       CLEAR     48  46  93 CALM      30.37R
WASECA         CLEAR     52  48  87 NE7       30.38R
ALBERT LEA     CLEAR     50  48  93 N6        30.36R
$$
MNZ078>079-086>088-094>096-290800-
   Southeast Minnesota

CITY           SKY/WX    TMP DP  RH WIND       PRES   REMARKS
ROCHESTER      MOCLDY    50  49  96 N9        30.35R
RED WING       CLEAR     50  48  93 CALM      30.36S
DODGE CENTER   PTCLDY    48  46  93 N6        30.36R
WINONA         PTCLDY    54  50  87 CALM      30.34R
AUSTIN         CLEAR     48  46  93 N7        30.35R
PRESTON        CLEAR     49  47  93 N7        30.34R
$$
ABBREVIATIONS USED IN REMARKS
   TC - TEMPERATURES IN CELSIUS
  WCI - WIND CHILL INDEX
   HX - HEAT INDEX
  VSB - VISIBILITY
$$




USA.gov is the U.S. government's official web portal to all federal, state and local government web resources and services.